Location: Newark
(34.1333°N, 7.9667°W)
Time: 08:57:05
(UTC+00:00)

Tiros 1 - Visible Passes

Search period start: 29 November 2021 00:00
Search period end: 09 December 2021 00:00
Orbit: 630 x 664 km, 48.4° (Epoch: 29 November)

Date Brightness Start Highest point End Pass type
(mag) Time Alt. Az. Time Alt. Az. Time Alt. Az.
29 Nov 9.1 18:19:56 10° SSE 18:21:55 13° SE 18:23:14 11° ESE visible
29 Nov 9.0 19:58:52 10° SW 20:00:55 26° SW 20:00:55 26° SW visible
30 Nov 8.0 18:43:20 10° SSW 18:47:26 32° SE 18:48:30 29° ESE visible
30 Nov 9.8 20:25:06 10° WSW 20:26:11 16° W 20:26:11 16° W visible
01 Dec 6.9 19:08:33 10° SW 19:13:11 81° SE 19:13:41 69° ENE visible
02 Dec 8.2 17:53:09 10° SSW 17:57:08 29° SE 18:01:08 10° ENE visible
02 Dec 7.9 19:34:42 10° WSW 19:38:48 45° NW 19:38:48 45° NW visible
03 Dec 7.1 18:18:15 10° SW 18:22:52 73° SE 18:26:11 19° ENE visible
03 Dec 9.3 20:01:31 10° W 20:03:51 21° NW 20:03:51 21° NW visible
04 Dec 7.7 18:44:18 10° WSW 18:48:48 50° NNW 18:51:10 26° NNE visible
04 Dec 10.2 20:28:44 10° NW 20:28:50 10° NW 20:28:50 10° NW visible
05 Dec 8.6 19:11:03 10° W 19:15:00 27° NNW 19:16:05 24° N visible
06 Dec 7.6 17:53:55 10° WSW 17:58:26 54° NW 18:03:01 10° NE visible
06 Dec 9.2 19:38:15 10° WNW 19:40:58 18° NNW 19:40:58 18° NNW visible
07 Dec 8.6 18:20:36 10° W 18:24:37 28° NNW 18:28:08 12° NNE visible
07 Dec 9.9 20:05:30 10° NW 20:05:48 11° NW 20:05:48 11° NW visible
08 Dec 9.1 18:47:46 10° WNW 18:51:01 18° NNW 18:52:57 15° NNE visible
